Dewpoint
63 63 63 63 63 62 62 62 61 60 59 59 58 57 56 55 55 55 53 53 52 50 48 48 47 47 44 43 42 43 43 45 45 45 44 43 42 41 40 40 39 40 41 41 39 40 38 37 37 39 39 39 37 37 35 33 35 35 35 33 33 35 35 35 34 34 36 36 35 34 34 34 30 32 29 31 32 31 34 34 34 35 33 34 35
62 63 63 63 62 62 62 62 60 59 59 58 57 55 55 55 55 53 52 51 50 49 48 48 46 45 43 42 42 41 42 42 44 44 42 42 42 40 40 38 39 40 40 39 40 40 40 38 37 39 39 37 37 33 33 31 28 29 31 33 31 34 35 35 34 35 35 36 35 34 33 33 31 30 32 33 32 32 30 31 32 31 32 34 35
62 63 62 61 62 63 61 60 59 58 58 57 56 54 54 55 54 53 51 51 49 48 47 47 46 44 43 42 40 41 41 42 44 43 42 41 38 40 40 40 40 41 40 38 37 39 40 41 40 41 42 40 38 38 37 35 33 32 34 32 34 34 35 36 37 36 35 34 37 33 34 34 35 30 29 30 32 31 29 29 29 29 32 35 36
62 62 61 61 62 62 60 59 59 58 57 57 56 55 54 54 52 52 51 50 47 48 47 45 45 44 43 42 41 40 41 42 42 41 40 40 39 39 38 40 40 40 38 36 37 39 39 40 41 41 40 39 37 37 37 38 36 33 33 33 33 32 36 38 38 36 35 35 36 32 34 33 33 30 29 29 30 30 30 30 30 30 33 32 33
62 61 61 61 62 60 59 58 58 58 57 56 56 55 54 53 52 50 50 48 47 47 46 45 46 44 44 41 41 40 40 40 40 40 42 41 39 39 37 37 39 38 39 39 39 40 41 39 38 39 40 39 38 36 37 39 35 34 33 32 31 33 36 38 37 36 36 35 34 35 34 33 34 34 30 29 32 30 32 32 29 33 35 34 36
61 62 62 61 60 60 59 58 58 58 57 56 55 54 54 53 51 51 48 47 47 48 46 44 44 42 42 40 40 40 38 39 38 39 39 41 41 40 39 39 39 38 38 38 38 40 40 39 39 38 38 39 38 37 38 38 36 34 32 32 31 33 38 37 35 36 34 32 34 33 35 34 33 33 32 33 32 30 29 31 34 36 36 37 35
61 60 61 61 59 59 59 58 58 57 56 55 55 54 52 52 51 49 48 47 47 47 45 44 44 43 41 41 40 39 37 38 39 40 40 39 40 39 39 39 38 39 38 38 39 40 40 38 38 37 36 36 36 35 36 36 36 34 33 34 32 35 36 34 33 33 33 33 33 33 32 33 34 31 30 33 33 31 31 31 33 34 36 35 36
61 60 60 60 59 58 58 58 58 57 55 54 53 53 52 51 51 50 48 47 47 45 43 44 45 42 41 41 41 40 38 38 38 39 39 40 41 41 40 40 39 39 40 39 40 40 40 37 35 33 33 34 35 33 33 36 36 33 32 34 35 34 34 33 32 29 31 31 31 31 31 31 31 33 34 33 30 29 32 33 33 33 34 36 36
60 59 59 59 59 58 58 57 56 55 54 53 52 52 51 51 51 49 48 48 47 44 45 44 43 42 41 43 41 40 39 40 40 40 41 40 41 42 41 39 39 38 38 39 40 39 38 36 32 30 29 29 34 33 32 34 38 33 32 33 33 33 33 32 30 29 29 30 31 33 31 31 31 32 31 30 29 30 33 35 34 34 34 35 36
59 59 58 58 57 56 57 56 54 54 53 52 51 51 51 51 50 49 47 46 45 45 44 44 42 42 42 41 41 42 41 41 45 43 43 41 42 40 42 42 40 39 39 39 39 38 36 34 31 32 33 34 36 41 38 37 34 35 33 31 29 31 30 30 29 29 29 29 31 32 31 31 29 33 32 31 32 33 34 34 34 33 35 35 36
59 58 58 58 57 56 55 54 54 53 52 52 51 53 54 51 49 48 47 46 45 45 44 43 42 43 42 42 43 43 42 40 39 38 38 40 43 43 42 42 41 40 40 40 39 38 33 29 33 38 39 38 39 40 38 39 38 38 37 40 35 34 29 27 27 29 27 32 33 32 30 30 30 32 31 29 32 33 34 34 34 34 34 33 31
59 58 58 58 56 54 54 53 53 52 52 51 53 55 53 50 49 47 47 46 46 46 45 44 43 45 44 43 44 44 45 42 37 38 39 38 41 49 43 42 43 41 40 39 38 39 39 39 40 42 42 40 38 36 39 38 38 37 37 37 37 37 39 36 28 28 30 32 32 32 31 29 30 31 29 31 32 34 34 34 34 34 35 33 32
59 59 59 58 56 55 54 53 53 52 51 53 54 52 51 50 48 47 46 47 46 45 44 46 44 45 45 43 45 45 46 38 38 38 38 38 38 43 42 43 42 41 42 41 39 39 39 40 38 35 29 31 35 36 37 36 39 38 37 38 37 35 33 33 36 35 33 32 33 31 29 29 29 29 32 33 35 35 34 33 34 35 35 34 33
58 57 57 56 55 55 54 54 53 53 53 52 52 50 50 51 49 47 47 47 47 46 46 46 45 45 45 45 45 45 46 40 38 38 38 37 37 39 44 43 43 41 41 41 41 41 40 40 39 38 37 38 35 35 35 37 39 39 40 37 35 38 39 35 34 34 38 36 34 31 32 32 30 32 34 35 34 32 32 32 35 35 35 34 35
57 57 56 56 55 54 52 51 52 51 51 50 50 50 50 50 47 46 47 47 47 46 45 45 45 45 45 45 45 45 48 39 37 38 37 37 37 37 44 43 42 42 42 43 42 41 40 41 41 40 40 34 32 32 37 37 40 38 38 38 39 40 39 39 39 37 36 36 36 36 36 36 36 35 35 34 35 34 34 34 35 35 35 35 34
56 56 55 54 54 53 51 50 50 50 50 49 49 49 49 48 47 48 48 47 46 46 45 45 46 45 45 45 45 45 47 37 37 37 37 37 37 41 42 42 42 42 42 42 41 42 39 40 40 39 38 32 38 31 37 37 40 38 37 38 39 39 39 42 37 36 39 38 38 38 39 40 37 40 40 38 37 37 35 33 34 34 32 30 30
56 55 55 54 53 51 50 50 50 49 49 49 48 49 49 48 48 47 47 46 46 44 45 45 46 46 45 45 45 45 44 38 36 37 37 37 38 40 42 41 40 42 42 42 41 41 38 38 39 37 39 33 37 33 35 37 38 38 37 39 39 38 36 38 41 35 35 35 35 35 35 34 34 35 35 36 38 40 36 31 31 32 30 29 31
56 55 55 53 52 50 50 50 50 49 49 48 48 49 49 48 47 48 47 45 47 47 47 50 47 45 45 44 44 45 45 39 37 37 37 37 40 39 40 42 40 42 42 42 41 41 40 47 45 38 39 35 34 33 34 39 39 39 38 39 38 36 36 35 38 39 38 36 35 35 35 35 36 36 36 36 35 37 34 30 34 31 30 30 30
55 54 51 51 51 50 50 50 49 48 48 48 49 49 49 50 51 50 50 50 48 48 47 44 49 46 44 46 48 45 46 41 37 37 37 37 40 39 38 40 40 41 41 41 41 40 40 40 44 40 42 38 33 35 34 36 38 39 38 39 36 35 36 35 36 36 37 39 40 42 42 37 43 37 36 34 34 38 35 36 34 31 28 29 30
54 53 52 52 51 51 51 50 49 49 48 48 48 48 47 47 46 46 46 43 43 44 46 43 44 46 46 44 46 44 46 43 40 37 37 37 37 40 40 40 39 41 40 39 39 40 39 33 38 35 34 33 34 35 35 35 34 38 39 39 36 34 34 33 35 36 37 38 38 36 35 34 35 34 34 34 34 36 37 36 35 32 31 31 30
55 53 52 51 51 51 50 50 50 49 48 47 47 46 46 46 46 45 44 44 44 44 46 44 43 45 45 44 45 44 46 45 42 37 37 37 37 37 39 41 40 40 39 38 36 38 37 30 27 36 34 34 35 34 35 34 35 37 37 39 37 40 33 32 35 39 38 38 35 33 32 31 33 32 31 31 30 33 35 37 34 33 32 31 29
51 50 50 49 49 49 50 50 50 48 47 47 46 46 46 45 45 44 42 42 42 42 40 40 39 40 41 43 44 45 47 47 46 38 37 37 36 36 39 40 42 42 39 37 36 36 36 34 32 34 33 34 34 35 35 35 35 36 49 31 32 32 38 33 33 35 35 33 31 29 30 29 29 32 31 30 31 33 35 34 34 34 33 33 31
53 52 50 50 49 49 50 50 50 50 48 47 46 45 44 44 43 42 42 41 41 40 38 37 39 39 41 42 43 44 45 48 41 40 37 36 36 36 36 38 36 40 40 38 36 35 35 35 38 34 33 34 34 35 35 35 36 35 33 33 33 33 35 31 33 36 32 31 32 30 29 31 31 29 30 31 33 35 33 33 33 33 34 34 33
52 51 50 50 50 50 50 50 50 50 49 47 47 45 45 44 43 42 41 40 39 38 35 37 37 38 41 41 43 41 42 43 40 39 38 36 36 35 35 35 34 37 38 41 37 35 35 37 34 33 33 34 34 34 35 35 33 33 33 33 33 33 32 32 34 34 31 29 28 28 30 29 30 29 30 33 31 33 32 33 33 33 33 33 32
51 51 50 50 50 50 49 49 48 47 48 48 46 45 44 44 44 42 41 40 38 38 37 38 36 40 38 38 37 37 40 42 41 39 37 36 35 35 34 33 33 34 38 40 37 38 37 34 33 33 34 34 34 34 35 35 34 33 33 32 34 30 32 33 32 32 29 28 27 30 29 29 31 31 35 35 35 32 31 33 34 33 33 33 33
50 50 50 50 50 48 48 48 47 46 46 45 45 44 44 43 42 41 40 39 40 37 34 32 33 32 32 32 32 36 39 41 41 39 38 36 35 35 34 34 35 35 37 36 33 33 34 34 34 34 35 34 37 36 33 34 34 33 32 33 36 30 33 32 30 29 28 27 28 27 28 29 32 33 35 34 32 28 29 29 28 30 32 30 29
51 51 50 50 49 47 48 46 46 46 46 45 45 45 43 43 42 40 40 38 37 36 35 34 32 29 31 38 36 38 39 40 38 38 36 35 35 36 36 36 36 35 33 35 34 36 37 38 33 33 33 34 35 36 36 34 36 38 35 35 33 32 33 32 30 30 30 31 28 27 28 29 31 32 31 30 30 30 32 30 28 28 30 29 28
50 50 49 49 48 47 47 42 44 45 45 45 43 44 45 43 41 40 39 40 38 37 38 31 29 29 35 37 37 37 36 35 34 37 34 33 30 31 31 33 33 32 32 33 36 37 35 33 34 37 36 35 35 36 33 31 30 29 29 29 31 33 33 32 31 31 33 33 27 28 29 31 30 29 29 28 30 29 32 30 30 28 28 27 26
50 50 49 48 48 47 47 46 46 45 44 44 44 43 42 42 42 41 41 39 37 34 32 31 31 34 37 35 35 34 32 32 34 34 34 32 30 30 29 29 30 31 32 32 35 36 32 31 29 30 29 29 30 30 29 28 30 30 34 34 32 30 31 28 31 29 29 30 27 28 28 29 30 28 28 28 30 29 32 32 32 31 28 27 24
50 49 48 47 47 46 47 46 46 46 45 44 45 44 38 39 40 41 40 37 35 34 34 36 36 36 34 33 33 32 35 33 34 33 33 32 32 32 32 31 32 31 32 31 34 32 32 33 34 32 31 29 29 30 30 30 31 30 33 30 32 29 27 29 29 28 31 29 27 27 28 29 29 28 29 28 29 30 30 30 32 32 29 25 26
48 48 47 47 45 46 47 46 45 46 46 45 44 43 42 40 35 34 36 37 36 34 33 33 32 31 31 33 41 35 36 34 33 33 33 33 32 33 32 33 33 33 32 32 31 33 33 32 30 29 29 30 31 30 30 28 29 27 28 28 27 27 28 31 29 30 29 30 29 30 30 28 30 30 29 29 31 29 31 30 30 32 29 28 26
49 48 47 47 46 46 46 46 46 46 45 44 43 42 41 40 40 36 35 35 34 34 33 33 32 33 32 36 37 39 35 33 33 33 33 33 33 33 33 33 33 33 32 31 29 29 31 30 30 30 30 31 30 30 28 28 27 26 26 26 27 27 27 27 29 28 29 28 27 26 28 28 29 29 30 29 28 28 30 29 30 31 30 30 28
49 48 48 47 46 45 45 45 45 46 45 43 43 42 41 40 39 38 36 35 34 34 34 34 33 34 34 37 36 35 34 34 34 34 34 34 33 33 33 33 33 32 30 31 29 28 27 27 25 28 28 29 27 28 28 28 28 27 27 27 28 28 30 30 29 30 29 29 28 28 29 28 29 28 27 28 30 29 29 29 28 30 29 28 28
50 49 48 47 46 46 45 47 46 46 45 44 44 43 42 42 41 39 36 34 34 34 35 34 34 34 35 37 37 36 36 35 34 34 34 33 33 33 33 33 33 32 31 31 30 29 27 26 25 26 25 28 27 29 28 28 27 28 27 28 29 30 30 31 30 29 30 30 29 29 28 28 28 28 29 28 28 28 29 27 27 29 28 30 29
51 43 40 43 47 46 46 45 46 46 45 44 43 42 43 42 41 39 37 35 34 34 32 34 35 35 35 35 35 35 35 36 35 35 35 34 34 34 33 33 31 30 30 29 26 24 24 25 25 25 26 27 26 27 28 29 28 29 28 27 27 28 28 29 28 29 28 28 28 29 28 29 28 28 27 27 28 27 28 29 27 28 28 28 28
50 48 47 46 47 46 46 46 45 45 45 44 44 43 42 41 40 39 38 39 38 36 35 34 33 34 34 34 34 35 35 35 35 35 35 34 34 34 34 33 33 34 32 30 27 25 23 22 22 22 23 23 25 24 24 24 25 25 26 27 27 29 29 28 29 28 30 30 28 28 27 28 27 27 28 29 30 29 28 28 28 28 29 28 29
50 48 47 47 47 46 47 46 45 45 42 43 44 44 42 42 41 41 40 39 39 38 37 37 36 36 35 36 35 34 35 35 35 35 35 34 34 35 36 35 35 34 33 33 32 31 27 24 23 23 23 24 23 21 22 23 22 24 27 27 28 28 29 28 28 29 29 28 28 28 29 28 28 29 29 26 25 26 26 27 28 27 27 28 28
50 48 47 48 48 48 47 46 45 40 43 43 44 43 43 42 41 40 40 40 39 42 38 38 38 37 33 33 37 35 34 35 35 35 35 34 33 35 36 35 35 35 34 34 34 33 32 31 29 28 27 25 23 21 21 23 21 24 29 28 27 28 29 29 28 30 32 29 28 29 26 27 29 27 25 24 24 24 25 26 27 26 28 28 27
49 42 40 40 43 47 46 45 44 44 44 43 43 43 41 41 41 42 42 40 44 40 38 39 38 39 36 35 35 36 34 34 33 33 35 35 35 35 35 36 36 36 35 34 34 33 32 32 31 30 28 26 23 20 19 21 23 25 27 28 28 29 29 27 29 29 27 26 25 26 26 25 24 24 24 24 25 25 25 27 27 27 27 27 27
48 46 42 39 43 45 45 45 44 45 43 44 43 43 41 41 41 41 41 40 40 40 39 39 38 38 38 37 36 35 33 32 32 32 34 34 35 35 36 35 36 36 35 35 34 34 34 32 31 31 29 26 24 22 21 23 28 27 26 29 26 26 28 28 26 25 25 24 24 24 24 25 24 25 25 24 24 24 25 25 25 26 27 28 26
49 46 41 41 43 45 44 44 44 44 44 43 43 43 42 41 41 40 40 40 39 40 40 39 37 38 38 37 36 36 35 35 35 34 34 34 34 35 36 36 36 36 36 35 35 35 34 33 32 32 29 27 26 27 27 26 28 26 27 27 27 26 27 30 29 27 26 26 26 25 25 25 25 25 25 25 27 26 25 24 24 24 25 26 27
47 44 44 44 43 45 44 43 43 42 44 44 44 43 42 41 41 40 39 40 39 39 39 38 38 37 35 35 36 35 35 35 34 34 34 34 34 35 35 36 36 36 36 36 35 36 34 32 32 32 32 32 28 26 25 27 27 27 28 27 27 27 27 27 28 28 27 25 26 27 27 25 25 25 26 30 26 26 26 25 24 24 24 25 26
47 45 45 45 44 44 43 44 44 44 43 43 42 40 42 42 41 41 39 38 38 38 37 37 38 36 35 34 34 34 34 31 32 33 33 34 35 35 35 35 36 36 36 36 35 35 34 34 34 33 32 31 30 25 25 26 27 30 28 31 30 31 31 29 29 28 26 26 26 27 28 28 27 25 26 27 26 26 26 28 27 27 27 28 27
45 44 44 43 44 44 43 44 44 43 43 42 41 41 41 41 40 41 40 40 39 38 38 38 37 36 35 34 34 34 32 28 27 30 32 34 36 36 35 35 35 36 36 36 36 35 34 34 33 33 34 33 31 30 26 24 26 28 30 30 29 29 30 31 30 29 27 25 25 25 25 26 27 25 26 27 28 27 27 28 27 27 26 27 28
46 44 44 43 44 44 43 43 43 43 41 41 42 42 41 41 40 40 40 40 38 38 38 37 37 37 35 35 35 34 33 31 31 31 32 34 35 35 35 35 36 36 36 35 36 36 36 35 35 34 33 32 30 29 26 24 28 28 29 30 30 29 29 32 32 31 28 28 25 25 25 25 26 25 25 26 27 27 25 27 26 27 26 25 26
46 44 43 43 43 43 42 43 43 43 42 42 42 42 41 40 40 40 39 39 38 38 37 37 36 36 35 36 35 34 34 34 33 32 32 34 35 35 36 34 35 35 36 35 36 37 35 35 34 34 33 33 32 29 25 28 28 30 33 33 34 34 34 33 33 33 32 31 28 26 26 27 27 26 27 27 26 26 28 29 29 28 28 28 28
47 45 43 45 43 42 42 44 42 42 43 42 42 42 42 41 41 39 38 38 39 38 37 38 37 37 36 35 35 35 35 35 35 34 35 35 35 35 35 36 35 36 36 36 38 36 37 37 36 36 34 33 33 33 29 26 25 26 30 30 32 34 34 34 34 34 31 32 32 30 29 29 29 28 28 29 28 28 29 29 29 30 30 29 29
45 43 44 44 44 43 43 44 42 40 43 41 41 41 40 41 41 40 40 39 38 39 38 38 38 37 36 37 35 34 34 34 34 35 34 34 35 35 35 36 36 36 36 36 37 36 35 35 36 35 34 35 33 32 31 31 29 28 28 29 31 32 34 33 32 32 32 33 32 33 34 33 31 31 30 31 30 29 29 28 29 28 29 28 28
44 44 44 44 43 43 43 43 42 43 42 42 41 41 40 41 40 40 40 40 39 38 38 38 38 38 37 37 36 34 34 35 34 34 34 34 35 35 35 35 36 36 35 35 35 35 35 34 34 34 34 34 34 33 31 32 30 31 32 33 35 33 32 32 32 35 36 33 33 33 33 33 34 34 33 33 32 32 30 31 30 30 30 30 29
45 43 44 43 43 44 43 43 43 43 42 42 41 41 40 40 40 40 40 40 40 40 39 39 38 38 38 36 35 35 34 34 34 35 35 35 34 34 34 35 37 37 35 35 34 33 34 35 36 35 35 35 34 34 34 34 34 35 35 36 33 32 32 32 32 32 34 32 33 32 32 32 33 33 33 33 34 34 33 32 32 31 30 30 30
43 44 43 44 43 43 43 43 43 42 42 42 42 41 40 40 40 40 40 40 40 40 39 40 39 38 38 37 36 36 36 37 37 36 35 35 35 34 35 35 35 37 37 37 36 35 36 36 35 35 36 35 35 35 36 36 36 36 34 33 33 32 32 32 33 32 32 32 32 32 32 33 34 34 33 34 34 33 32 32 32 32 31 30 30